Time,TemperatureF,DewpointF,PressureIn,WindDirection,WindDirectionDegrees,WindSpeedMPH,WindSpeedGustMPH,Humidity,HourlyPrecipIn,Conditions,Clouds,dailyrainin,SoftwareType,DateUTC
2013-01-15 00:00:00,44.8,44.0,30.15,East,90,0.7,1.6,97,0.00,,,0.00,pywws,2013-01-15 05:00:00,
2013-01-15 00:01:00,45.0,44.2,30.15,East,90,0.0,0.7,97,0.00,,,0.00,pywws,2013-01-15 05:01:00,
2013-01-15 00:03:00,45.0,44.2,30.15,NE,45,0.7,1.6,97,0.00,,,0.00,pywws,2013-01-15 05:03:00,
2013-01-15 00:05:00,45.0,44.2,30.16,NE,45,0.0,1.6,97,0.00,,,0.00,pywws,2013-01-15 05:05:00,
2013-01-15 00:11:00,44.8,44.0,30.16,NE,45,0.0,0.0,97,0.00,,,0.00,pywws,2013-01-15 05:11:00,
2013-01-15 00:16:00,44.8,44.0,30.16,NE,45,0.0,0.0,97,0.00,,,0.00,pywws,2013-01-15 05:16:00,
2013-01-15 00:22:00,44.8,44.0,30.15,NE,45,0.0,0.7,97,0.00,,,0.00,pywws,2013-01-15 05:22:00,
2013-01-15 00:27:00,44.6,43.8,30.15,East,90,0.0,0.7,97,0.00,,,0.00,pywws,2013-01-15 05:27:00,
2013-01-15 00:33:00,44.6,43.8,30.14,East,90,0.0,0.0,97,0.00,,,0.00,pywws,2013-01-15 05:33:00,
2013-01-15 00:39:00,44.6,43.8,30.15,NE,45,0.0,0.0,97,0.00,,,0.00,pywws,2013-01-15 05:39:00,
2013-01-15 00:44:00,44.6,43.8,30.15,East,90,0.0,0.7,97,0.00,,,0.00,pywws,2013-01-15 05:44:00,
2013-01-15 00:50:00,44.6,43.8,30.14,East,90,0.0,0.0,97,0.00,,,0.00,pywws,2013-01-15 05:50:00,
2013-01-15 00:55:00,44.6,43.8,30.15,East,90,0.0,0.0,97,0.00,,,0.00,pywws,2013-01-15 05:55:00,
2013-01-15 01:01:00,44.6,43.8,30.15,East,90,0.0,0.0,97,0.00,,,0.00,pywws,2013-01-15 06:01:00,
2013-01-15 01:07:00,45.0,44.2,30.15,SE,135,0.7,1.6,97,0.00,,,0.00,pywws,2013-01-15 06:07:00,
2013-01-15 01:15:00,45.1,44.3,30.15,South,180,0.0,0.7,97,0.00,,,0.00,pywws,2013-01-15 06:15:00,
2013-01-15 01:20:00,45.1,44.3,30.14,East,90,0.0,1.6,97,0.00,,,0.00,pywws,2013-01-15 06:20:00,
2013-01-15 01:26:00,45.3,44.5,30.15,SE,135,0.0,0.0,97,0.01,,,0.01,pywws,2013-01-15 06:26:00,
2013-01-15 01:31:00,45.3,44.5,30.14,NE,45,0.0,0.0,97,0.01,,,0.01,pywws,2013-01-15 06:31:00,
2013-01-15 01:37:00,45.3,44.5,30.13,NE,45,1.6,3.1,97,0.01,,,0.01,pywws,2013-01-15 06:37:00,
2013-01-15 01:43:00,45.3,44.5,30.14,NW,315,0.0,0.0,97,0.01,,,0.01,pywws,2013-01-15 06:43:00,
2013-01-15 01:48:00,45.1,44.3,30.14,East,90,0.7,1.6,97,0.01,,,0.01,pywws,2013-01-15 06:48:00,
2013-01-15 01:54:00,45.0,44.2,30.14,NE,45,0.7,1.6,97,0.01,,,0.01,pywws,2013-01-15 06:54:00,
2013-01-15 01:59:00,45.0,44.2,30.14,East,90,0.0,0.0,97,0.01,,,0.01,pywws,2013-01-15 06:59:00,
2013-01-15 02:05:00,45.0,44.2,30.14,NE,45,0.7,1.6,97,0.01,,,0.01,pywws,2013-01-15 07:05:00,
2013-01-15 02:11:00,45.0,44.2,30.14,East,90,0.7,3.1,97,0.01,,,0.01,pywws,2013-01-15 07:11:00,
2013-01-15 02:17:00,45.0,44.2,30.13,SE,135,0.0,0.0,97,0.01,,,0.01,pywws,2013-01-15 07:17:00,
2013-01-15 02:23:00,45.3,44.5,30.14,South,180,0.7,1.6,97,0.01,,,0.01,pywws,2013-01-15 07:23:00,
2013-01-15 02:28:00,45.3,44.5,30.14,South,180,0.0,1.6,97,0.00,,,0.01,pywws,2013-01-15 07:28:00,
2013-01-15 02:34:00,45.3,44.5,30.13,South,180,0.7,2.2,97,0.00,,,0.01,pywws,2013-01-15 07:34:00,
2013-01-15 02:39:00,45.3,44.5,30.13,South,180,1.6,2.2,97,0.00,,,0.01,pywws,2013-01-15 07:39:00,
2013-01-15 02:45:00,45.5,44.7,30.12,South,180,2.2,3.8,97,0.00,,,0.01,pywws,2013-01-15 07:45:00,
2013-01-15 02:51:00,45.3,44.5,30.12,East,90,2.2,5.4,97,0.00,,,0.01,pywws,2013-01-15 07:51:00,
2013-01-15 02:56:00,45.5,44.7,30.12,SE,135,0.0,1.6,97,0.00,,,0.01,pywws,2013-01-15 07:56:00,
2013-01-15 03:03:00,45.5,44.7,30.11,South,180,1.6,3.1,97,0.01,,,0.02,pywws,2013-01-15 08:03:00,
2013-01-15 03:08:00,45.7,44.9,30.11,East,90,0.7,3.1,97,0.01,,,0.02,pywws,2013-01-15 08:08:00,
2013-01-15 03:14:00,45.7,44.9,30.11,South,180,0.0,1.6,97,0.01,,,0.02,pywws,2013-01-15 08:14:00,
2013-01-15 03:19:00,45.7,44.9,30.12,South,180,2.2,3.8,97,0.01,,,0.02,pywws,2013-01-15 08:19:00,
2013-01-15 03:25:00,45.7,44.9,30.11,South,180,1.6,3.1,97,0.01,,,0.02,pywws,2013-01-15 08:25:00,
2013-01-15 03:31:00,46.0,45.2,30.11,South,180,1.6,2.2,97,0.01,,,0.02,pywws,2013-01-15 08:31:00,
2013-01-15 03:36:00,46.2,45.4,30.11,SW,225,1.6,2.2,97,0.01,,,0.02,pywws,2013-01-15 08:36:00,
2013-01-15 03:42:00,46.2,45.4,30.10,East,90,0.7,1.6,97,0.01,,,0.02,pywws,2013-01-15 08:42:00,
2013-01-15 03:47:00,46.2,45.4,30.10,SE,135,1.6,2.2,97,0.01,,,0.02,pywws,2013-01-15 08:47:00,
2013-01-15 03:53:00,46.2,45.4,30.11,SSW,202,1.6,3.1,97,0.01,,,0.02,pywws,2013-01-15 08:53:00,
2013-01-15 03:59:00,46.4,45.9,30.11,East,90,3.8,6.9,98,0.01,,,0.02,pywws,2013-01-15 08:59:00,
2013-01-15 04:04:00,46.6,46.0,30.10,SE,135,1.6,3.1,98,0.00,,,0.02,pywws,2013-01-15 09:04:00,
2013-01-15 04:10:00,46.6,46.0,30.10,SE,135,1.6,2.2,98,0.00,,,0.02,pywws,2013-01-15 09:10:00,
2013-01-15 04:15:00,46.8,46.2,30.10,South,180,2.2,4.5,98,0.00,,,0.02,pywws,2013-01-15 09:15:00,
2013-01-15 04:21:00,46.6,46.0,30.10,South,180,1.6,3.1,98,0.00,,,0.02,pywws,2013-01-15 09:21:00,
2013-01-15 04:27:00,46.8,46.2,30.09,South,180,2.2,4.5,98,0.00,,,0.02,pywws,2013-01-15 09:27:00,
2013-01-15 04:32:00,46.8,46.2,30.09,SW,225,1.6,3.1,98,0.00,,,0.02,pywws,2013-01-15 09:32:00,
2013-01-15 04:38:00,46.9,46.1,30.09,East,90,2.2,3.8,97,0.00,,,0.02,pywws,2013-01-15 09:38:00,
2013-01-15 04:43:00,46.8,46.0,30.08,South,180,3.8,4.5,97,0.00,,,0.02,pywws,2013-01-15 09:43:00,
2013-01-15 04:49:00,46.8,46.0,30.08,SW,225,2.2,3.8,97,0.00,,,0.02,pywws,2013-01-15 09:49:00,
2013-01-15 04:55:00,46.8,46.0,30.09,SE,135,1.6,3.1,97,0.00,,,0.02,pywws,2013-01-15 09:55:00,
2013-01-15 05:03:00,46.8,46.0,30.08,South,180,0.7,3.1,97,0.00,,,0.02,pywws,2013-01-15 10:03:00,
2013-01-15 05:08:00,46.8,46.0,30.08,East,90,3.1,4.5,97,0.01,,,0.04,pywws,2013-01-15 10:08:00,
2013-01-15 05:14:00,46.6,46.0,30.08,South,180,0.7,2.2,98,0.01,,,0.04,pywws,2013-01-15 10:14:00,
2013-01-15 05:19:00,46.8,46.2,30.09,East,90,2.2,3.1,98,0.01,,,0.04,pywws,2013-01-15 10:19:00,
2013-01-15 05:25:00,46.8,46.2,30.09,SW,225,1.6,3.1,98,0.01,,,0.04,pywws,2013-01-15 10:25:00,
2013-01-15 05:31:00,46.9,46.4,30.09,South,180,1.6,3.8,98,0.02,,,0.05,pywws,2013-01-15 10:31:00,
2013-01-15 05:36:00,46.9,46.4,30.08,South,180,1.6,3.1,98,0.02,,,0.05,pywws,2013-01-15 10:36:00,
2013-01-15 05:42:00,47.1,46.6,30.08,South,180,1.6,3.1,98,0.04,,,0.06,pywws,2013-01-15 10:42:00,
2013-01-15 05:52:00,47.5,46.9,30.09,East,90,0.0,1.6,98,0.05,,,0.07,pywws,2013-01-15 10:52:00,
2013-01-15 05:58:00,47.7,47.4,30.09,SSE,158,1.6,3.1,99,0.05,,,0.07,pywws,2013-01-15 10:58:00,
2013-01-15 06:03:00,47.8,47.6,30.09,West,270,1.6,2.2,99,0.06,,,0.08,pywws,2013-01-15 11:03:00,
2013-01-15 06:09:00,48.0,47.8,30.10,SW,225,1.6,2.2,99,0.07,,,0.09,pywws,2013-01-15 11:09:00,
2013-01-15 06:15:00,48.2,47.7,30.10,East,90,0.0,0.0,98,0.06,,,0.09,pywws,2013-01-15 11:15:00,
2013-01-15 06:22:00,48.2,47.7,30.11,West,270,0.0,0.7,98,0.07,,,0.11,pywws,2013-01-15 11:22:00,
2013-01-15 06:30:00,48.0,47.8,30.10,West,270,0.0,0.0,99,0.07,,,0.12,pywws,2013-01-15 11:30:00,
2013-01-15 06:35:00,48.0,47.8,30.10,West,270,0.0,0.0,99,0.07,,,0.12,pywws,2013-01-15 11:35:00,
2013-01-15 06:41:00,48.4,47.8,30.10,East,90,0.7,1.6,98,0.07,,,0.13,pywws,2013-01-15 11:41:00,
2013-01-15 06:46:00,48.9,48.4,30.10,East,90,2.2,3.8,98,0.06,,,0.13,pywws,2013-01-15 11:46:00,
2013-01-15 06:52:00,49.1,48.8,30.10,East,90,0.7,1.6,99,0.07,,,0.14,pywws,2013-01-15 11:52:00,
2013-01-15 06:58:00,48.9,48.7,30.09,ESE,112,0.7,1.6,99,0.07,,,0.14,pywws,2013-01-15 11:58:00,
2013-01-15 07:06:00,48.9,48.7,30.09,SW,225,0.7,2.2,99,0.05,,,0.14,pywws,2013-01-15 12:06:00,
2013-01-15 07:12:00,48.9,48.7,30.09,South,180,0.7,2.2,99,0.05,,,0.14,pywws,2013-01-15 12:12:00,
2013-01-15 07:17:00,49.1,48.8,30.10,SW,225,1.6,3.8,99,0.05,,,0.14,pywws,2013-01-15 12:17:00,
2013-01-15 07:22:00,49.3,49.0,30.11,SW,225,2.2,3.8,99,0.04,,,0.14,pywws,2013-01-15 12:22:00,
2013-01-15 07:27:00,49.5,49.2,30.11,East,90,1.6,3.1,99,0.02,,,0.14,pywws,2013-01-15 12:27:00,
2013-01-15 07:32:00,49.6,49.4,30.11,East,90,1.6,3.8,99,0.04,,,0.15,pywws,2013-01-15 12:32:00,
2013-01-15 07:37:00,49.8,49.5,30.12,East,90,0.0,1.6,99,0.04,,,0.15,pywws,2013-01-15 12:37:00,
2013-01-15 07:42:00,50.0,49.5,30.12,SE,135,1.6,3.1,98,0.04,,,0.17,pywws,2013-01-15 12:42:00,
2013-01-15 07:47:00,50.2,49.6,30.11,NE,45,1.6,3.1,98,0.04,,,0.17,pywws,2013-01-15 12:47:00,
2013-01-15 07:52:00,50.4,49.8,30.11,SSW,202,3.1,3.8,98,0.02,,,0.17,pywws,2013-01-15 12:52:00,
2013-01-15 08:02:00,50.5,50.3,30.11,NE,45,2.2,3.8,99,0.04,,,0.18,pywws,2013-01-15 13:02:00,
2013-01-15 08:07:00,50.7,50.4,30.11,East,90,1.6,3.8,99,0.05,,,0.19,pywws,2013-01-15 13:07:00,
2013-01-15 08:13:00,51.1,50.8,30.12,South,180,0.0,1.6,99,0.05,,,0.19,pywws,2013-01-15 13:13:00,
2013-01-15 08:18:00,51.1,50.8,30.12,East,90,0.7,2.2,99,0.06,,,0.20,pywws,2013-01-15 13:18:00,
2013-01-15 08:24:00,51.3,51.0,30.13,South,180,0.0,0.0,99,0.06,,,0.20,pywws,2013-01-15 13:24:00,
2013-01-15 08:30:00,51.1,50.8,30.13,SSE,158,0.0,0.7,99,0.06,,,0.21,pywws,2013-01-15 13:30:00,
2013-01-15 08:35:00,51.1,50.8,30.13,East,90,0.7,2.2,99,0.06,,,0.21,pywws,2013-01-15 13:35:00,
2013-01-15 08:41:00,51.3,51.0,30.13,East,90,0.0,0.7,99,0.05,,,0.21,pywws,2013-01-15 13:41:00,
2013-01-15 08:46:00,51.3,51.0,30.13,East,90,1.6,2.2,99,0.05,,,0.21,pywws,2013-01-15 13:46:00,
2013-01-15 08:52:00,51.3,51.0,30.13,NE,45,0.7,2.2,99,0.06,,,0.22,pywws,2013-01-15 13:52:00,
2013-01-15 08:58:00,51.3,51.0,30.13,NE,45,1.6,2.2,99,0.05,,,0.22,pywws,2013-01-15 13:58:00,
2013-01-15 09:04:00,51.4,51.2,30.13,NE,45,1.6,2.2,99,0.05,,,0.22,pywws,2013-01-15 14:04:00,
2013-01-15 09:10:00,49.5,49.2,30.13,NE,45,1.6,2.2,99,0.05,,,0.24,pywws,2013-01-15 14:10:00,
2013-01-15 09:15:00,48.6,48.3,30.13,NE,45,0.7,1.6,99,0.04,,,0.24,pywws,2013-01-15 14:15:00,
2013-01-15 09:21:00,48.4,48.1,30.13,East,90,0.7,1.6,99,0.04,,,0.24,pywws,2013-01-15 14:21:00,
2013-01-15 09:26:00,48.2,47.9,30.13,NE,45,0.7,1.6,99,0.02,,,0.24,pywws,2013-01-15 14:26:00,
2013-01-15 09:34:00,48.2,47.9,30.13,East,90,0.0,0.0,99,0.02,,,0.24,pywws,2013-01-15 14:34:00,
2013-01-15 09:40:00,48.2,47.9,30.14,NW,315,0.0,0.7,99,0.02,,,0.24,pywws,2013-01-15 14:40:00,
2013-01-15 09:46:00,48.0,47.8,30.14,NE,45,0.0,0.7,99,0.02,,,0.24,pywws,2013-01-15 14:46:00,
2013-01-15 09:52:00,48.2,47.9,30.13,East,90,0.0,0.0,99,0.02,,,0.25,pywws,2013-01-15 14:52:00,
2013-01-15 09:58:00,48.4,48.1,30.14,East,90,0.0,0.0,99,0.02,,,0.25,pywws,2013-01-15 14:58:00,
2013-01-15 10:04:00,48.2,47.9,30.14,East,90,0.0,0.0,99,0.02,,,0.25,pywws,2013-01-15 15:04:00,
2013-01-15 10:10:00,48.2,47.9,30.14,SW,225,0.0,0.0,99,0.01,,,0.25,pywws,2013-01-15 15:10:00,
2013-01-15 10:17:00,48.2,47.9,30.14,SE,135,0.0,0.0,99,0.01,,,0.25,pywws,2013-01-15 15:17:00,
2013-01-15 10:22:00,48.2,47.9,30.14,East,90,0.0,0.0,99,0.02,,,0.26,pywws,2013-01-15 15:22:00,
2013-01-15 10:28:00,48.4,48.1,30.14,East,90,0.0,0.0,99,0.02,,,0.26,pywws,2013-01-15 15:28:00,
2013-01-15 10:37:00,48.4,48.1,30.13,East,90,0.0,0.0,99,0.05,,,0.28,pywws,2013-01-15 15:37:00,
2013-01-15 10:42:00,48.6,48.3,30.13,East,90,0.0,0.0,99,0.05,,,0.28,pywws,2013-01-15 15:42:00,
2013-01-15 10:50:00,48.7,48.5,30.12,East,90,0.0,0.7,99,0.04,,,0.28,pywws,2013-01-15 15:50:00,
2013-01-15 10:55:00,48.7,48.5,30.13,East,90,0.0,0.7,99,0.04,,,0.28,pywws,2013-01-15 15:55:00,
2013-01-15 11:01:00,48.7,48.5,30.12,NE,45,0.0,0.7,99,0.05,,,0.30,pywws,2013-01-15 16:01:00,
2013-01-15 11:06:00,48.9,48.7,30.13,NE,45,0.0,0.0,99,0.05,,,0.30,pywws,2013-01-15 16:06:00,
2013-01-15 11:12:00,48.9,48.7,30.12,NE,45,0.7,1.6,99,0.05,,,0.30,pywws,2013-01-15 16:12:00,
2013-01-15 11:18:00,48.7,48.5,30.12,NE,45,0.0,0.0,99,0.06,,,0.31,pywws,2013-01-15 16:18:00,
2013-01-15 11:24:00,48.9,48.7,30.12,NE,45,0.7,1.6,99,0.05,,,0.31,pywws,2013-01-15 16:24:00,
2013-01-15 11:30:00,48.7,48.5,30.11,NE,45,0.0,0.7,99,0.05,,,0.32,pywws,2013-01-15 16:30:00,
2013-01-15 11:36:00,48.9,48.7,30.11,NE,45,0.0,0.7,99,0.05,,,0.32,pywws,2013-01-15 16:36:00,
2013-01-15 11:42:00,49.3,49.0,30.11,NE,45,0.7,1.6,99,0.04,,,0.32,pywws,2013-01-15 16:42:00,
2013-01-15 11:47:00,49.3,49.0,30.10,NE,45,0.0,0.0,99,0.04,,,0.32,pywws,2013-01-15 16:47:00,
2013-01-15 11:54:00,49.3,49.0,30.10,NE,45,0.0,0.7,99,0.04,,,0.32,pywws,2013-01-15 16:54:00,
2013-01-15 12:00:00,49.3,49.0,30.10,NE,45,0.0,0.7,99,0.04,,,0.33,pywws,2013-01-15 17:00:00,
2013-01-15 12:06:00,49.3,49.0,30.10,NE,45,0.0,0.7,99,0.04,,,0.33,pywws,2013-01-15 17:06:00,
2013-01-15 12:11:00,49.6,49.4,30.10,NE,45,0.7,1.6,99,0.05,,,0.34,pywws,2013-01-15 17:11:00,
2013-01-15 12:17:00,49.6,49.4,30.09,NE,45,1.6,3.1,99,0.05,,,0.35,pywws,2013-01-15 17:17:00,
2013-01-15 12:22:00,49.6,49.4,30.08,NE,45,1.6,3.1,99,0.06,,,0.37,pywws,2013-01-15 17:22:00,
2013-01-15 12:28:00,50.2,49.6,30.08,NE,45,0.0,1.6,98,0.07,,,0.38,pywws,2013-01-15 17:28:00,
2013-01-15 12:34:00,50.7,50.2,30.08,East,90,3.1,4.5,98,0.06,,,0.38,pywws,2013-01-15 17:34:00,
2013-01-15 12:39:00,51.6,51.3,30.08,East,90,0.7,1.6,99,0.06,,,0.38,pywws,2013-01-15 17:39:00,
2013-01-15 12:45:00,52.0,51.4,30.08,SE,135,2.2,3.1,98,0.06,,,0.38,pywws,2013-01-15 17:45:00,
2013-01-15 12:50:00,52.2,51.6,30.07,SE,135,2.2,3.8,98,0.06,,,0.38,pywws,2013-01-15 17:50:00,
2013-01-15 12:56:00,52.3,51.8,30.07,NE,45,0.7,3.1,98,0.06,,,0.38,pywws,2013-01-15 17:56:00,
2013-01-15 13:02:00,52.5,52.0,30.07,NE,45,3.1,6.0,98,0.05,,,0.38,pywws,2013-01-15 18:02:00,
2013-01-15 13:07:00,52.3,51.8,30.06,SE,135,2.2,4.5,98,0.05,,,0.38,pywws,2013-01-15 18:07:00,
2013-01-15 13:13:00,52.3,51.5,30.06,South,180,2.2,3.8,97,0.04,,,0.38,pywws,2013-01-15 18:13:00,
2013-01-15 13:18:00,52.5,51.7,30.06,SE,135,3.8,4.5,97,0.02,,,0.38,pywws,2013-01-15 18:18:00,
2013-01-15 13:24:00,52.2,51.3,30.06,East,90,3.8,4.5,97,0.01,,,0.38,pywws,2013-01-15 18:24:00,
2013-01-15 13:30:00,52.2,51.3,30.06,SE,135,3.1,5.4,97,0.00,,,0.38,pywws,2013-01-15 18:30:00,
2013-01-15 13:35:00,52.2,51.1,30.05,East,90,4.5,5.4,96,0.00,,,0.38,pywws,2013-01-15 18:35:00,
2013-01-15 13:41:00,52.5,51.7,30.05,SE,135,1.6,2.2,97,0.01,,,0.39,pywws,2013-01-15 18:41:00,
2013-01-15 13:46:00,52.7,51.9,30.05,South,180,3.1,4.5,97,0.01,,,0.39,pywws,2013-01-15 18:46:00,
2013-01-15 13:52:00,52.5,51.4,30.05,South,180,3.1,6.9,96,0.01,,,0.39,pywws,2013-01-15 18:52:00,
2013-01-15 13:58:00,52.3,51.2,30.05,East,90,4.5,8.3,96,0.01,,,0.39,pywws,2013-01-15 18:58:00,
2013-01-15 14:03:00,52.3,51.2,30.04,South,180,3.1,4.5,96,0.01,,,0.39,pywws,2013-01-15 19:03:00,
2013-01-15 14:09:00,52.3,51.2,30.04,SE,135,3.1,4.5,96,0.01,,,0.39,pywws,2013-01-15 19:09:00,
2013-01-15 14:14:00,52.3,51.2,30.04,SE,135,3.8,6.0,96,0.01,,,0.39,pywws,2013-01-15 19:14:00,
2013-01-15 14:20:00,52.3,51.2,30.04,South,180,3.1,6.0,96,0.01,,,0.39,pywws,2013-01-15 19:20:00,
2013-01-15 14:26:00,52.2,51.1,30.03,SE,135,6.0,9.8,96,0.01,,,0.39,pywws,2013-01-15 19:26:00,
2013-01-15 14:31:00,52.0,50.9,30.03,East,90,1.6,3.1,96,0.01,,,0.39,pywws,2013-01-15 19:31:00,
2013-01-15 14:37:00,52.0,50.9,30.04,East,90,4.5,9.2,96,0.01,,,0.39,pywws,2013-01-15 19:37:00,
2013-01-15 14:42:00,51.8,50.7,30.04,ESE,112,4.5,6.9,96,0.00,,,0.39,pywws,2013-01-15 19:42:00,
2013-01-15 14:48:00,51.8,50.7,30.03,East,90,5.4,11.4,96,0.01,,,0.40,pywws,2013-01-15 19:48:00,
2013-01-15 14:54:00,51.8,50.7,30.04,South,180,4.5,9.2,96,0.01,,,0.40,pywws,2013-01-15 19:54:00,
2013-01-15 14:59:00,51.6,50.8,30.04,East,90,2.2,3.8,97,0.01,,,0.40,pywws,2013-01-15 19:59:00,
2013-01-15 15:05:00,51.6,50.8,30.03,SSE,158,6.0,7.6,97,0.01,,,0.40,pywws,2013-01-15 20:05:00,
2013-01-15 15:10:00,51.6,50.8,30.03,SW,225,4.5,8.3,97,0.01,,,0.40,pywws,2013-01-15 20:10:00,
2013-01-15 15:16:00,51.6,50.5,30.03,East,90,3.8,6.9,96,0.01,,,0.40,pywws,2013-01-15 20:16:00,
2013-01-15 15:22:00,51.4,50.3,30.03,South,180,6.0,9.2,96,0.01,,,0.40,pywws,2013-01-15 20:22:00,
2013-01-15 15:27:00,51.3,50.2,30.04,SE,135,3.1,5.4,96,0.01,,,0.40,pywws,2013-01-15 20:27:00,
2013-01-15 15:33:00,51.3,50.2,30.04,East,90,4.5,7.6,96,0.01,,,0.40,pywws,2013-01-15 20:33:00,
2013-01-15 15:38:00,51.1,50.0,30.04,East,90,4.5,8.3,96,0.02,,,0.41,pywws,2013-01-15 20:38:00,
2013-01-15 15:44:00,51.1,50.0,30.04,SE,135,6.9,9.2,96,0.02,,,0.41,pywws,2013-01-15 20:44:00,
2013-01-15 15:50:00,51.1,50.0,30.04,SSE,158,3.1,6.9,96,0.02,,,0.43,pywws,2013-01-15 20:50:00,
2013-01-15 15:55:00,50.9,49.8,30.04,NW,315,4.5,7.6,96,0.02,,,0.43,pywws,2013-01-15 20:55:00,
2013-01-15 16:01:00,50.7,49.6,30.04,SE,135,3.8,7.6,96,0.04,,,0.44,pywws,2013-01-15 21:01:00,
2013-01-15 16:06:00,50.4,49.3,30.04,NE,45,5.4,8.3,96,0.05,,,0.45,pywws,2013-01-15 21:06:00,
2013-01-15 16:12:00,50.4,49.3,30.04,East,90,6.0,13.6,96,0.06,,,0.46,pywws,2013-01-15 21:12:00,
2013-01-15 16:18:00,50.2,49.1,30.04,East,90,4.5,8.3,96,0.07,,,0.47,pywws,2013-01-15 21:18:00,
2013-01-15 16:23:00,50.2,49.1,30.04,SE,135,5.4,9.8,96,0.07,,,0.47,pywws,2013-01-15 21:23:00,
2013-01-15 16:29:00,50.0,48.9,30.04,ESE,112,4.5,9.2,96,0.08,,,0.48,pywws,2013-01-15 21:29:00,
2013-01-15 16:35:00,50.0,48.9,30.05,South,180,2.2,3.8,96,0.08,,,0.50,pywws,2013-01-15 21:35:00,
2013-01-15 16:40:00,49.8,49.0,30.04,NE,45,4.5,7.6,97,0.08,,,0.50,pywws,2013-01-15 21:40:00,
2013-01-15 16:46:00,49.8,49.0,30.04,SW,225,3.1,4.5,97,0.07,,,0.50,pywws,2013-01-15 21:46:00,
2013-01-15 16:51:00,49.8,49.3,30.04,East,90,3.1,6.0,98,0.08,,,0.51,pywws,2013-01-15 21:51:00,
2013-01-15 16:57:00,49.8,49.0,30.04,WNW,292,5.4,8.3,97,0.08,,,0.51,pywws,2013-01-15 21:57:00,
2013-01-15 17:02:00,49.6,48.8,30.04,South,180,4.5,9.8,97,0.07,,,0.51,pywws,2013-01-15 22:02:00,
2013-01-15 17:08:00,49.6,48.8,30.04,ESE,112,3.1,3.8,97,0.06,,,0.51,pywws,2013-01-15 22:08:00,
2013-01-15 17:14:00,49.5,48.6,30.05,East,90,2.2,4.5,97,0.06,,,0.51,pywws,2013-01-15 22:14:00,
2013-01-15 17:19:00,49.5,48.6,30.05,SE,135,0.7,2.2,97,0.04,,,0.51,pywws,2013-01-15 22:19:00,
2013-01-15 17:25:00,49.5,48.6,30.05,South,180,3.8,5.4,97,0.02,,,0.51,pywws,2013-01-15 22:25:00,
2013-01-15 17:30:00,49.5,48.6,30.07,South,180,2.2,4.5,97,0.01,,,0.51,pywws,2013-01-15 22:30:00,
2013-01-15 17:36:00,49.5,48.6,30.06,East,90,6.0,8.3,97,0.02,,,0.52,pywws,2013-01-15 22:36:00,
2013-01-15 17:42:00,49.3,48.5,30.05,SE,135,3.1,5.4,97,0.05,,,0.54,pywws,2013-01-15 22:42:00,
2013-01-15 17:49:00,49.3,48.7,30.05,ESE,112,4.5,6.9,98,0.05,,,0.54,pywws,2013-01-15 22:49:00,
2013-01-15 17:54:00,49.3,48.7,30.05,South,180,3.1,6.9,98,0.06,,,0.57,pywws,2013-01-15 22:54:00,
2013-01-15 18:00:00,49.3,48.7,30.05,SW,225,2.2,6.0,98,0.06,,,0.57,pywws,2013-01-15 23:00:00,
2013-01-15 18:06:00,49.3,48.7,30.05,SW,225,3.1,5.4,98,0.08,,,0.59,pywws,2013-01-15 23:06:00,
2013-01-15 18:11:00,49.3,48.7,30.06,SSW,202,2.2,3.1,98,0.08,,,0.59,pywws,2013-01-15 23:11:00,
2013-01-15 18:17:00,49.3,48.7,30.06,SE,135,3.8,5.4,98,0.11,,,0.61,pywws,2013-01-15 23:17:00,
2013-01-15 18:22:00,49.3,48.7,30.07,ESE,112,2.2,6.0,98,0.13,,,0.64,pywws,2013-01-15 23:22:00,
2013-01-15 18:28:00,49.1,48.6,30.07,SE,135,0.7,1.6,98,0.14,,,0.65,pywws,2013-01-15 23:28:00,
2013-01-15 18:34:00,49.1,48.6,30.08,SE,135,2.2,6.9,98,0.15,,,0.66,pywws,2013-01-15 23:34:00,
2013-01-15 18:39:00,49.1,48.6,30.07,East,90,2.2,4.5,98,0.14,,,0.69,pywws,2013-01-15 23:39:00,
2013-01-15 18:45:00,49.1,48.6,30.06,SE,135,3.8,5.4,98,0.14,,,0.69,pywws,2013-01-15 23:45:00,
2013-01-15 18:50:00,48.9,48.4,30.06,East,90,4.5,6.9,98,0.14,,,0.69,pywws,2013-01-15 23:50:00,
2013-01-15 18:56:00,48.9,48.4,30.06,East,90,3.1,5.4,98,0.12,,,0.69,pywws,2013-01-15 23:56:00,
2013-01-15 19:02:00,48.7,48.2,30.06,South,180,3.8,6.0,98,0.12,,,0.69,pywws,2013-01-16 00:02:00,
2013-01-15 19:07:00,48.7,48.2,30.06,South,180,2.2,6.0,98,0.09,,,0.69,pywws,2013-01-16 00:07:00,
2013-01-15 19:13:00,48.7,48.2,30.06,South,180,2.2,5.4,98,0.09,,,0.69,pywws,2013-01-16 00:13:00,
2013-01-15 19:18:00,48.6,48.0,30.05,South,180,4.5,8.3,98,0.07,,,0.69,pywws,2013-01-16 00:18:00,
2013-01-15 19:24:00,48.6,48.0,30.05,South,180,2.2,4.5,98,0.07,,,0.70,pywws,2013-01-16 00:24:00,
2013-01-15 19:30:00,48.6,48.0,30.05,South,180,3.1,6.9,98,0.05,,,0.71,pywws,2013-01-16 00:30:00,
2013-01-15 19:35:00,48.4,47.8,30.05,SE,135,3.8,6.9,98,0.04,,,0.71,pywws,2013-01-16 00:35:00,
2013-01-15 19:41:00,48.4,47.8,30.04,West,270,3.1,5.4,98,0.02,,,0.71,pywws,2013-01-16 00:41:00,
2013-01-15 19:46:00,48.4,47.8,30.04,SE,135,3.1,4.5,98,0.02,,,0.71,pywws,2013-01-16 00:46:00,
2013-01-15 19:52:00,48.2,47.7,30.04,SE,135,3.8,6.9,98,0.02,,,0.71,pywws,2013-01-16 00:52:00,
2013-01-15 19:58:00,48.0,47.8,30.03,South,180,3.8,5.4,99,0.02,,,0.71,pywws,2013-01-16 00:58:00,
2013-01-15 20:03:00,48.0,47.8,30.04,SW,225,3.1,6.9,99,0.02,,,0.71,pywws,2013-01-16 01:03:00,
2013-01-15 20:09:00,47.8,47.6,30.04,South,180,3.8,8.3,99,0.02,,,0.71,pywws,2013-01-16 01:09:00,
2013-01-15 20:14:00,47.8,47.6,30.03,East,90,3.1,4.5,99,0.02,,,0.71,pywws,2013-01-16 01:14:00,
2013-01-15 20:20:00,47.8,47.6,30.03,East,90,4.5,8.3,99,0.04,,,0.72,pywws,2013-01-16 01:20:00,
2013-01-15 20:26:00,47.8,47.6,30.03,SE,135,3.1,5.4,99,0.01,,,0.72,pywws,2013-01-16 01:26:00,
2013-01-15 20:31:00,47.8,47.6,30.03,East,90,2.2,3.8,99,0.01,,,0.72,pywws,2013-01-16 01:31:00,
2013-01-15 20:37:00,47.8,47.6,30.03,East,90,3.1,4.5,99,0.01,,,0.72,pywws,2013-01-16 01:37:00,
2013-01-15 20:42:00,47.5,47.2,30.03,East,90,1.6,3.1,99,0.01,,,0.72,pywws,2013-01-16 01:42:00,
2013-01-15 20:48:00,47.3,47.0,30.03,NW,315,2.2,5.4,99,0.01,,,0.72,pywws,2013-01-16 01:48:00,
2013-01-15 20:54:00,47.3,47.0,30.03,SE,135,2.2,6.0,99,0.01,,,0.72,pywws,2013-01-16 01:54:00,
2013-01-15 20:59:00,47.3,47.0,30.03,East,90,3.1,4.5,99,0.02,,,0.73,pywws,2013-01-16 01:59:00,
2013-01-15 21:05:00,47.3,47.0,30.03,South,180,3.8,5.4,99,0.02,,,0.73,pywws,2013-01-16 02:05:00,
2013-01-15 21:10:00,47.1,46.9,30.03,South,180,4.5,6.9,99,0.02,,,0.73,pywws,2013-01-16 02:10:00,
2013-01-15 21:18:00,47.1,46.9,30.03,NE,45,4.5,7.6,99,0.02,,,0.73,pywws,2013-01-16 02:18:00,
2013-01-15 21:23:00,46.9,46.7,30.02,ENE,68,5.4,9.8,99,0.01,,,0.73,pywws,2013-01-16 02:23:00,
2013-01-15 21:29:00,46.9,46.7,30.02,SE,135,5.4,10.7,99,0.01,,,0.73,pywws,2013-01-16 02:29:00,
2013-01-15 21:34:00,46.9,46.7,30.02,ESE,112,3.8,5.4,99,0.01,,,0.73,pywws,2013-01-16 02:34:00,
2013-01-15 21:40:00,46.9,46.7,30.02,SE,135,4.5,9.8,99,0.01,,,0.73,pywws,2013-01-16 02:40:00,
2013-01-15 21:46:00,46.8,46.5,30.02,SW,225,3.1,3.8,99,0.01,,,0.73,pywws,2013-01-16 02:46:00,
2013-01-15 21:51:00,46.8,46.5,30.03,South,180,4.5,6.0,99,0.01,,,0.73,pywws,2013-01-16 02:51:00,
2013-01-15 21:57:00,46.8,46.5,30.02,East,90,3.8,6.9,99,0.00,,,0.73,pywws,2013-01-16 02:57:00,
2013-01-15 22:02:00,46.8,46.5,30.02,South,180,3.8,6.9,99,0.00,,,0.73,pywws,2013-01-16 03:02:00,
2013-01-15 22:08:00,46.6,46.3,30.02,SE,135,3.8,6.0,99,0.00,,,0.73,pywws,2013-01-16 03:08:00,
2013-01-15 22:14:00,46.6,46.3,30.02,East,90,3.8,6.9,99,0.00,,,0.73,pywws,2013-01-16 03:14:00,
2013-01-15 22:19:00,46.6,46.3,30.02,SE,135,4.5,8.3,99,0.00,,,0.73,pywws,2013-01-16 03:19:00,
2013-01-15 22:25:00,46.6,46.3,30.01,South,180,5.4,7.6,99,0.00,,,0.73,pywws,2013-01-16 03:25:00,
2013-01-15 22:30:00,46.6,46.3,30.02,North,0,5.4,8.3,99,0.00,,,0.73,pywws,2013-01-16 03:30:00,
2013-01-15 22:36:00,46.4,46.1,30.02,South,180,3.1,4.5,99,0.00,,,0.73,pywws,2013-01-16 03:36:00,
2013-01-15 22:42:00,46.4,46.1,30.03,East,90,4.5,6.0,99,0.00,,,0.73,pywws,2013-01-16 03:42:00,
2013-01-15 22:47:00,46.4,46.1,30.03,East,90,0.0,0.7,99,0.00,,,0.73,pywws,2013-01-16 03:47:00,
2013-01-15 22:53:00,46.4,46.1,30.02,NE,45,3.1,6.9,99,0.00,,,0.73,pywws,2013-01-16 03:53:00,
2013-01-15 22:58:00,46.4,46.1,30.01,East,90,3.1,8.3,99,0.00,,,0.73,pywws,2013-01-16 03:58:00,
2013-01-15 23:06:00,46.4,46.1,30.01,ENE,68,1.6,6.0,99,0.00,,,0.73,pywws,2013-01-16 04:06:00,
2013-01-15 23:11:00,46.6,46.3,30.01,East,90,3.8,8.3,99,0.00,,,0.73,pywws,2013-01-16 04:11:00,
2013-01-15 23:17:00,46.6,46.3,30.01,NE,45,0.7,2.2,99,0.00,,,0.73,pywws,2013-01-16 04:17:00,
2013-01-15 23:22:00,46.6,46.3,30.01,South,180,3.1,6.0,99,0.00,,,0.73,pywws,2013-01-16 04:22:00,
2013-01-15 23:28:00,46.8,46.5,30.01,East,90,3.1,4.5,99,0.00,,,0.73,pywws,2013-01-16 04:28:00,
2013-01-15 23:34:00,46.8,46.5,30.01,South,180,3.1,4.5,99,0.00,,,0.73,pywws,2013-01-16 04:34:00,
2013-01-15 23:39:00,46.8,46.5,30.01,SE,135,3.1,8.3,99,0.00,,,0.73,pywws,2013-01-16 04:39:00,
2013-01-15 23:45:00,46.6,46.0,30.01,East,90,3.1,4.5,98,0.00,,,0.73,pywws,2013-01-16 04:45:00,
2013-01-15 23:50:00,46.6,46.0,30.01,East,90,2.2,6.0,98,0.00,,,0.73,pywws,2013-01-16 04:50:00,
2013-01-15 23:56:00,46.6,46.0,30.01,South,180,0.7,2.2,98,0.00,,,0.73,pywws,2013-01-16 04:56:00,